Date String (YYYY-MM-DD hh:mm:ss) UTC,Instrument flags,absolute air pressure of the measurement (hPa),sample flow rate (lpm),inlet stack bypass flow (lpm),air temperature of the measurement (°C),ambient temperature measured by the external sensor (°C),aerosol sample conditioner tube jacket temperature (°C),OPC LED temperature (°C),internal box temperature (°C),relative humidity of the measurement (%),span deviation,mass concentration of particles derived from Lorenz-Mie calculation of OPC scattering (μg/m³),mass concentration of particles derived from Lorenz-Mie calculation of OPC scattering (μg/m³),mass concentration of particles derived from Lorenz-Mie calculation of OPC scattering (μg/m³)
DateTimeUTC,F1_M11,P_M11,Q1_M11,Q2_M11,T1_M11,T2_M11,T3_M11,T4_M11,T5_M11,U1_M11,ZSPAN_M11,X0_M11,X2_M11,X1_M11
2024-06-12 23:00:00,SystemResetWarning,0829.3,5.01,000.00,028.3,025.2,000.0,037.1,029.1,021.3,0000.0,0011.69,0004.34,0003.59
2024-06-12 23:01:00,SystemResetWarning,0829.3,5.01,000.00,028.3,025.9,000.0,037.0,029.4,022.2,0000.0,0010.99,0004.39,0003.63
2024-06-12 23:02:00,SystemResetWarning,0829.3,5.00,000.00,028.3,026.4,000.0,036.9,029.8,022.1,0000.0,0011.28,0004.45,0003.65
2024-06-12 23:03:00,SystemResetWarning,0829.3,5.00,000.00,028.4,026.9,000.0,036.9,030.0,021.1,0000.0,0012.00,0004.51,0003.67
2024-06-12 23:04:00,SystemResetWarning,0829.3,5.00,000.00,028.5,027.3,000.0,036.9,030.2,019.9,0000.0,0012.61,0004.56,0003.69
2024-06-12 23:05:00,SystemResetWarning,0829.4,5.00,000.00,028.6,027.7,000.0,036.9,030.4,020.2,0000.0,0012.55,0004.58,0003.70
2024-06-12 23:06:00,SystemResetWarning,0829.3,5.00,000.00,028.6,028.1,000.0,036.9,030.5,019.6,0000.0,0012.51,0004.61,0003.71
2024-06-12 23:07:00,SystemResetWarning,0829.3,4.99,000.00,028.7,028.3,000.0,036.9,030.7,020.1,0000.0,0012.64,0004.60,0003.71
2024-06-12 23:08:00,SystemResetWarning,0829.3,5.00,000.00,028.8,028.6,000.0,036.9,030.8,019.9,0000.0,0012.62,0004.57,0003.72
2024-06-12 23:09:00,SystemResetWarning,0829.3,5.00,000.00,028.9,028.8,000.0,037.0,030.9,020.2,0000.0,0012.04,0004.47,0003.72
2024-06-12 23:10:00,SystemResetWarning,0829.3,4.98,000.00,028.9,027.8,000.0,037.1,030.3,020.1,0000.0,0010.60,0004.38,0003.72
2024-06-12 23:11:00,SystemResetWarning,0829.3,5.01,000.00,028.6,025.8,000.0,037.1,029.4,021.0,0000.0,0010.05,0004.42,0003.73
2024-06-12 23:12:00,SystemResetWarning,0829.3,5.01,000.00,028.4,025.7,000.0,037.1,029.3,021.5,0000.0,0010.31,0004.40,0003.73
2024-06-12 23:13:00,SystemResetWarning,0829.3,5.00,000.00,028.3,026.2,000.0,036.9,029.6,021.3,0000.0,0010.22,0004.40,0003.73
2024-06-12 23:14:00,SystemResetWarning,0829.2,5.00,000.00,028.4,026.7,000.0,036.9,029.9,020.6,0000.0,0009.94,0004.35,0003.73
2024-06-12 23:15:00,SystemResetWarning,0829.1,4.99,000.00,028.4,027.1,000.0,036.9,030.1,020.6,0000.0,0009.50,0004.37,0003.74
2024-06-12 23:16:00,SystemResetWarning,0829.2,4.99,000.00,028.5,027.5,000.0,036.8,030.3,019.4,0000.0,0009.57,0004.35,0003.74
2024-06-12 23:17:00,SystemResetWarning,0829.1,4.99,000.00,028.6,027.8,000.0,036.8,030.4,019.5,0000.0,0009.41,0004.35,0003.74
2024-06-12 23:18:00,SystemResetWarning,0829.1,5.00,000.00,028.7,028.1,000.0,036.9,030.6,019.4,0000.0,0009.28,0004.35,0003.76
2024-06-12 23:19:00,SystemResetWarning,0829.1,5.00,000.00,028.8,028.3,000.0,036.9,030.7,019.0,0000.0,0009.19,0004.38,0003.76
2024-06-12 23:20:00,SystemResetWarning,0829.0,5.00,000.00,028.9,028.5,000.0,036.9,030.8,019.4,0000.0,0009.26,0004.41,0003.76
2024-06-12 23:21:00,SystemResetWarning,0829.0,5.00,000.00,029.0,028.6,000.0,037.0,030.8,019.0,0000.0,0009.43,0004.44,0003.77
2024-06-12 23:22:00,SystemResetWarning,0829.0,4.98,000.00,028.9,027.1,000.0,037.1,030.1,019.7,0000.0,0009.75,0004.43,0003.77
2024-06-12 23:23:00,SystemResetWarning,0829.0,5.01,000.00,028.5,025.5,000.0,037.1,029.3,020.2,0000.0,0009.50,0004.42,0003.77
2024-06-12 23:24:00,SystemResetWarning,0829.0,5.01,000.00,028.4,025.9,000.0,037.0,029.4,021.1,0000.0,0009.51,0004.42,0003.75
2024-06-12 23:25:00,SystemResetWarning,0829.0,5.00,000.00,028.4,026.4,000.0,036.9,029.7,021.0,0000.0,0009.38,0004.44,0003.75
2024-06-12 23:26:00,SystemResetWarning,0829.0,5.00,000.00,028.4,026.8,000.0,036.9,029.9,021.1,0000.0,0008.96,0004.43,0003.75
2024-06-12 23:27:00,SystemResetWarning,0829.0,5.01,000.00,028.5,027.2,000.0,036.9,030.2,021.4,0000.0,0008.75,0004.43,0003.74
2024-06-12 23:28:00,SystemResetWarning,0829.0,5.00,000.00,028.6,027.6,000.0,036.9,030.3,021.4,0000.0,0009.01,0004.43,0003.73
2024-06-12 23:29:00,SystemResetWarning,0828.9,5.00,000.00,028.7,027.9,000.0,036.8,030.5,019.8,0000.0,0009.67,0004.40,0003.71
2024-06-12 23:30:00,SystemResetWarning,0828.9,5.00,000.00,028.8,028.2,000.0,036.9,030.6,019.7,0000.0,0009.52,0004.36,0003.69
2024-06-12 23:31:00,SystemResetWarning,0829.0,5.00,000.00,028.9,028.4,000.0,036.9,030.8,019.7,0000.0,0009.51,0004.36,0003.69
2024-06-12 23:32:00,SystemResetWarning,0829.0,4.99,000.00,029.0,028.6,000.0,036.9,030.9,020.6,0000.0,0009.56,0004.33,0003.67
2024-06-12 23:33:00,SystemResetWarning,0828.9,4.98,000.00,029.0,027.4,000.0,037.0,030.3,021.3,0000.0,0009.12,0004.32,0003.67
2024-06-12 23:34:00,SystemResetWarning,0828.8,5.01,000.00,028.6,025.5,000.0,037.1,029.4,021.2,0000.0,0009.35,0004.34,0003.67
2024-06-12 23:35:00,SystemResetWarning,0828.8,5.01,000.00,028.4,025.6,000.0,037.0,029.3,021.6,0000.0,0009.60,0004.32,0003.68
2024-06-12 23:36:00,SystemResetWarning,0828.8,5.00,000.00,028.4,026.1,000.0,037.0,029.6,021.7,0000.0,0009.79,0004.26,0003.67
2024-06-12 23:37:00,SystemResetWarning,0828.8,5.00,000.00,028.4,026.6,000.0,036.9,029.8,021.3,0000.0,0010.65,0004.27,0003.67
2024-06-12 23:38:00,SystemResetWarning,0828.8,5.00,000.00,028.5,027.0,000.0,036.8,030.1,020.5,0000.0,0011.00,0004.23,0003.66
2024-06-12 23:39:00,SystemResetWarning,0828.8,5.00,000.00,028.5,027.4,000.0,036.8,030.3,020.5,0000.0,0011.44,0004.27,0003.65
2024-06-12 23:40:00,SystemResetWarning,0828.9,5.01,000.00,028.6,027.8,000.0,036.8,030.4,019.5,0000.0,0011.96,0004.25,0003.64
2024-06-12 23:41:00,SystemResetWarning,0828.9,5.00,000.00,028.7,028.1,000.0,036.8,030.6,019.8,0000.0,0012.29,0004.25,0003.64
2024-06-12 23:42:00,SystemResetWarning,0828.9,4.99,000.00,028.9,028.3,000.0,036.9,030.7,020.5,0000.0,0013.89,0004.27,0003.63
2024-06-12 23:43:00,SystemResetWarning,0828.9,5.00,000.00,029.0,028.5,000.0,036.9,030.9,020.5,0000.0,0014.20,0004.30,0003.64
2024-06-12 23:44:00,SystemResetWarning,0828.9,5.01,000.00,029.1,028.6,000.0,037.0,030.9,020.7,0000.0,0014.70,0004.26,0003.63
2024-06-12 23:45:00,SystemResetWarning,0828.7,4.98,000.00,028.9,026.9,000.0,037.0,030.1,021.0,0000.0,0014.94,0004.25,0003.62
2024-06-12 23:46:00,SystemResetWarning,0828.7,5.01,000.00,028.5,025.3,000.0,037.1,029.3,021.5,0000.0,0014.73,0004.20,0003.61
2024-06-12 23:47:00,SystemResetWarning,0828.7,5.00,000.00,028.4,025.7,000.0,037.0,029.4,021.6,0000.0,0014.73,0004.27,0003.61
2024-06-12 23:48:00,SystemResetWarning,0828.7,4.99,000.00,028.4,026.2,000.0,036.9,029.6,021.4,0000.0,0014.17,0004.30,0003.61
2024-06-12 23:49:00,SystemResetWarning,0828.8,5.00,000.00,028.4,026.7,000.0,036.9,029.9,021.2,0000.0,0013.41,0004.30,0003.61
2024-06-12 23:50:00,SystemResetWarning,0828.8,5.01,000.00,028.5,027.1,000.0,036.8,030.1,021.7,0000.0,0013.84,0004.31,0003.62
2024-06-12 23:51:00,SystemResetWarning,0828.8,5.00,000.00,028.6,027.5,000.0,036.8,030.3,021.3,0000.0,0013.21,0004.33,0003.62
2024-06-12 23:52:00,SystemResetWarning,0828.8,5.00,000.00,028.7,027.8,000.0,036.8,030.5,020.9,0000.0,0013.06,0004.36,0003.64
2024-06-12 23:53:00,SystemResetWarning,0828.9,5.00,000.00,028.8,028.1,000.0,036.8,030.6,021.2,0000.0,0011.65,0004.39,0003.64
2024-06-12 23:54:00,SystemResetWarning,0828.9,5.01,000.00,028.9,028.3,000.0,036.9,030.8,020.4,0000.0,0011.48,0004.41,0003.64
2024-06-12 23:55:00,SystemResetWarning,0828.9,5.00,000.00,029.0,028.5,000.0,036.9,030.9,020.8,0000.0,0010.97,0004.44,0003.64
2024-06-12 23:56:00,SystemResetWarning,0828.9,5.00,000.00,029.1,028.7,000.0,037.0,031.0,020.0,0000.0,0010.70,0004.43,0003.64
2024-06-12 23:57:00,SystemResetWarning,0828.8,4.98,000.00,029.0,027.6,000.0,037.1,030.4,020.7,0000.0,0010.56,0004.44,0003.64
2024-06-12 23:58:00,SystemResetWarning,0828.8,5.01,000.00,028.6,025.6,000.0,037.1,029.4,021.6,0000.0,0010.51,0004.41,0003.64
2024-06-12 23:59:00,SystemResetWarning,0828.7,5.02,000.00,028.4,025.7,000.0,037.1,029.4,022.1,0000.0,0010.83,0004.41,0003.63
